[[{"header":{"parameterUnit":"m.s-1","parameterCategory":2,"la1":30.2991,"la2":30.254,"lo1":-89.0895,"lo2":-89.0444,"dy":0.0017,"dx":0.0017,"nx":28,"ny":28,"refTime":"2024-07-29T03:00:00:Z","depth":"0","parameterNumber":2,"parameterNumberName":"U-component_of_CURRENTS"},"data":[0,0,0,0,0,0,0,0,0,0,0,0,0,0,0,0,0,0,0,0,0,0,0,0,0,0,0,0,0,0,0,0,0,0,0,0,0,0,0,0,0,0,0,0,0,0,0,0,0,0,0,0,0,0,0,0,0,0,0.0263,0.0263,0,0.0272,0.0272,0.0272,0.0272,0.0272,0.0272,0.0272,0.0214,0.0213,0.0211,0,0,0,0,0,0,0,0,0,0,0,0,0,0.0234,0.0235,0.0263,0.0263,0.0263,0.0272,0.0272,0.0272,0.0272,0.0272,0.0272,0.0272,0.0215,0.0213,0.0211,0,0,0,0,0,0,0,0,0,0,0,0,0,0.0245,0.0235,0.0263,0.0265,0.0265,0.0272,0.0272,0.0272,0.0272,0.0272,0.0272,0.0272,0.0215,0.0213,0.0211,0.02,0,0,0.0204,0.0203,0,0,0,0,0,0,0,0,0.0244,0.0246,0.0264,0.0264,0.0265,0.0271,0.0241,0.0245,0.0272,0.0269,0.0272,0.0272,0.0227,0.0224,0.0227,0.0197,0.0194,0.0204,0.0203,0.0202,0.0201,0,0,0,0,0,0,0,0.0244,0.0246,0.0266,0.0264,0.0265,0.0261,0.0263,0.0242,0.0247,0.0269,0.0269,0.0271,0.0227,0.0229,0.0225,0.0194,0.0204,0.0202,0.0201,0.02,0.0101,0.0099,0,0,0,0,0,0,0.0244,0.0245,0.0266,0.0266,0.0255,0.0262,0.0263,0.0269,0.0249,0.0246,0.0271,0.0271,0.0233,0.0228,0.0223,0.0192,0.0202,0.02,0.0199,0.0102,0.01,0.0099,0,0,0,0,0,0,0.0244,0.0246,0.0265,0.0256,0.0258,0.0263,0.0269,0.0269,0.027,0.0251,0.0247,0.0272,0.0232,0.0226,0.0195,0.019,0.0199,0.0197,0.0103,0.0101,0.01,0.014,0,0,0,0,0,0,0.0243,0.0246,0.0241,0.0256,0.0259,0.0265,0.0269,0.0269,0.0272,0.0272,0.025,0.0245,0.0232,0.0199,0.0193,0.0187,0.0195,0.0105,0.0102,0.01,0.014,0.0139,0.0139,0,0,0,0,0,0.0242,0.0234,0.0241,0.0243,0.0255,0.0264,0.0265,0.0268,0.0272,0.0269,0.0251,0.0246,0.0178,0.0196,0.019,0.0183,0.0106,0.0103,0.01,0.014,0.0139,0.0139,0,0,0,0,0,0,0.0211,0.0234,0.0241,0.0239,0.025,0.0264,0.0256,0.0268,0.0255,0.0244,0.0236,0.0229,0.02,0.0177,0.0198,0.0142,0.0138,0.0134,0.0171,0.017,0.0169,0.0191,0.0193,0,0,0,0,0,0.0205,0.0211,0.023,0.0228,0.0231,0.0246,0.0248,0.025,0.0246,0.0242,0.0232,0.0205,0.0182,0.0166,0.014,0.0114,0.0151,0.0099,0.0099,0.0098,0.0108,0.0133,0.0138,0.0089,0.0089,0.0089,0,0,0.0195,0.0206,0.021,0.0223,0.0229,0.0229,0.0246,0.0242,0.0244,0.0234,0.0221,0.0205,0.0174,0.0146,0.013,0.0128,0.0143,0.0095,0.0095,0.0105,0.0131,0.0137,0.0141,0.0087,0.0087,0.0088,0,0,0.018,0.0185,0.0187,0.0193,0.0199,0.0206,0.0208,0.022,0.0223,0.0211,0.0203,0.0188,0.015,0.0138,0.0124,0.01,0.014,0.008,0.0097,0.0121,0.0127,0.0132,0.0249,0.0263,0.0078,0.0078,0.0078,0,0.0163,0.0175,0.0187,0.0186,0.0191,0.0198,0.0201,0.02,0.0201,0.021,0.0202,0.0178,0.015,0.014,0.0126,0.0104,0.0153,0.0111,0.0126,0.0131,0.0136,0.0253,0.0269,0.008,0.0079,0.0079,0.0079,0,0.0157,0.016,0.0157,0.0166,0.0168,0.0167,0.0174,0.0171,0.0177,0.0191,0.019,0.017,0.0163,0.0143,0.0126,0.0137,0.018,0.0131,0.0142,0.0144,0.0267,0.0284,0.0082,0.0081,0.0081,0.008,0,0,0.0144,0.0156,0.0154,0.0166,0.0161,0.017,0.0157,0.0173,0.0189,0.0181,0.0221,0.0175,0.0189,0.0173,0.016,0.0173,0.0262,0.0166,0.0166,0.031,0.0396,0.061,0.0649,0.0217,0.0218,0.0219,0.0494,0,0.014,0.0148,0.0151,0.0157,0.0167,0.0165,0.0168,0.0173,0.0185,0.0217,0.0214,0.0239,0.0193,0.0212,0.021,0.0247,0.0295,0.0197,0.0347,0.0354,0.0565,0.067,0.0772,0.104,0.051,0.0513,0.0515,0,0.0144,0.0151,0.0166,0.0184,0.0188,0.0191,0.0214,0.0219,0.0244,0.0262,0.0279,0.0293,0.0331,0.0282,0.0373,0.0317,0.036,0.039,0.0399,0.0593,0.0597,0.0934,0.1089,0.1024,0.054,0.0538,0.0537,0,0.0165,0.0166,0.0188,0.0191,0.0203,0.0214,0.0223,0.0239,0.0288,0.0317,0.0387,0.0387,0.0473,0.0467,0.0556,0.0459,0.07,0.0567,0.0816,0.0835,0.0951,0.0978,0.1081,0.0636,0.0636,0.0635,0.0634,0,0.0183,0.0202,0.0204,0.0219,0.0259,0.0247,0.0307,0.0308,0.0366,0.0466,0.0436,0.0558,0.0521,0.0654,0.0638,0.0861,0.0781,0.0882,0.0925,0.0976,0.1,0.0969,0.0877,0.0645,0.0643,0.0641,0.0639,0,0.0235,0.0226,0.026,0.0269,0.0282,0.0318,0.0396,0.0448,0.0487,0.0626,0.0663,0.0756,0.0933,0.0969,0.1051,0.1069,0.1195,0.1264,0.1394,0.1448,0.1566,0.1473,0.1592,0.1577,0.1557,0.1565,0.157,0,0.0282,0.0299,0.0319,0.0356,0.0374,0.0429,0.0484,0.0514,0.0595,0.0778,0.0875,0.1086,0.1248,0.1523,0.1599,0.1723,0.1527,0.1888,0.1687,0.1664,0.1587,0.1412,0.1371,0.1876,0.1883,0.189,0.1895,0,0.0387,0.0383,0.0413,0.047,0.0528,0.0589,0.0671,0.0751,0.0828,0.0963,0.1181,0.1323,0.1652,0.1851,0.2074,0.2129,0.1847,0.2029,0.1928,0.1824,0.1711,0.1689,0.1648,0.1953,0.1947,0.1943,0.194,0.1937,0.0497,0.0531,0.0562,0.062,0.0666,0.0737,0.0802,0.0912,0.1057,0.125,0.1384,0.1613,0.1932,0.2258,0.2342,0.2529,0.2298,0.2433,0.2329,0.2157,0.2118,0.2287,0.2671,0.2669,0.2668,0.2667,0.2665,0,0.066,0.0671,0.072,0.0771,0.0815,0.0814,0.0925,0.0992,0.1165,0.136,0.1548,0.1913,0.2239,0.2455,0.2755,0.2759,0.26,0.2707,0.2397,0.234,0.2461,0.2448,0.2895,0.2895,0.2895,0.2895,0.2895,0.2895,0.0765,0.083,0.082,0.0904,0.0921,0.098,0.103,0.1132,0.1253,0.1501,0.1696,0.1862,0.2185,0.2614,0.2806,0.2809,0.2533,0.258,0.2417,0.241,0.237,0.2332,0.2297,0.2705,0.2704,0.2272,0.2269,0.2266]},{"header":{"parameterUnit":"m.s-1","parameterCategory":2,"la1":30.2991,"la2":30.254,"lo1":-89.0895,"lo2":-89.0444,"dy":0.0017,"dx":0.0017,"nx":28,"ny":28,"refTime":"2024-07-29T03:00:00:Z","depth":"0","parameterNumber":3,"parameterNumberName":"V-component_of_CURRENTS"},"data":[0,0,0,0,0,0,0,0,0,0,0,0,0,0,0,0,0,0,0,0,0,0,0,0,0,0,0,0,0,0,0,0,0,0,0,0,0,0,0,0,0,0,0,0,0,0,0,0,0,0,0,0,0,0,0,0,0,0,-0.166,-0.1661,0,-0.1748,-0.1749,-0.175,-0.18,-0.18,-0.18,-0.18,-0.1853,-0.1854,-0.1855,0,0,0,0,0,0,0,0,0,0,0,0,0,-0.1621,-0.1621,-0.166,-0.1661,-0.1662,-0.1747,-0.1749,-0.175,-0.18,-0.18,-0.18,-0.18,-0.1852,-0.1854,-0.1856,0,0,0,0,0,0,0,0,0,0,0,0,0,-0.1669,-0.1621,-0.166,-0.1695,-0.1699,-0.1747,-0.1749,-0.1751,-0.18,-0.18,-0.18,-0.18,-0.1851,-0.1854,-0.1856,-0.1873,0,0,-0.1863,-0.1864,0,0,0,0,0,0,0,0,-0.1666,-0.1671,-0.1689,-0.1693,-0.1697,-0.176,-0.1754,-0.1789,-0.18,-0.1765,-0.18,-0.18,-0.1817,-0.1822,-0.1843,-0.1875,-0.1877,-0.1863,-0.1864,-0.1865,-0.1866,0,0,0,0,0,0,0,-0.1663,-0.1668,-0.1698,-0.169,-0.1695,-0.1735,-0.1741,-0.1762,-0.1792,-0.1768,-0.1771,-0.1776,-0.1819,-0.1841,-0.1845,-0.1878,-0.1863,-0.1865,-0.1866,-0.1867,-0.1921,-0.1921,0,0,0,0,0,0,-0.1641,-0.1664,-0.1695,-0.17,-0.1677,-0.1735,-0.1742,-0.1743,-0.1793,-0.18,-0.1776,-0.1778,-0.1837,-0.1842,-0.1847,-0.1868,-0.1865,-0.1867,-0.1869,-0.192,-0.1921,-0.1921,0,0,0,0,0,0,-0.164,-0.1643,-0.1692,-0.1682,-0.1691,-0.1735,-0.1736,-0.1744,-0.1771,-0.1799,-0.1806,-0.1794,-0.1837,-0.1843,-0.188,-0.1871,-0.1868,-0.187,-0.192,-0.1921,-0.1921,-0.1912,0,0,0,0,0,0,-0.1639,-0.1642,-0.1637,-0.168,-0.169,-0.1721,-0.1736,-0.1746,-0.1772,-0.1776,-0.1816,-0.1821,-0.1838,-0.1876,-0.1882,-0.1874,-0.1872,-0.192,-0.192,-0.1921,-0.1912,-0.1912,-0.1911,0,0,0,0,0,-0.1637,-0.1629,-0.1636,-0.164,-0.1681,-0.1721,-0.1731,-0.1764,-0.1773,-0.1788,-0.1821,-0.182,-0.188,-0.1879,-0.1885,-0.1877,-0.192,-0.192,-0.1921,-0.1912,-0.1912,-0.1911,0,0,0,0,0,0,-0.1604,-0.1635,-0.1643,-0.1643,-0.1678,-0.1728,-0.1741,-0.1765,-0.1805,-0.1806,-0.1836,-0.1843,-0.1866,-0.1877,-0.1875,-0.1892,-0.1894,-0.1895,-0.1885,-0.1885,-0.1885,-0.1869,-0.1874,0,0,0,0,0,-0.1593,-0.1602,-0.1636,-0.1639,-0.1653,-0.1698,-0.1718,-0.1742,-0.178,-0.1798,-0.1832,-0.1856,-0.1871,-0.1884,-0.1903,-0.1923,-0.1902,-0.1917,-0.1916,-0.1916,-0.1907,-0.1897,-0.1894,-0.1921,-0.1921,-0.1921,0,0,-0.1583,-0.1599,-0.1604,-0.1634,-0.1663,-0.168,-0.1711,-0.1741,-0.1761,-0.1796,-0.1838,-0.1859,-0.1877,-0.1898,-0.1907,-0.1907,-0.189,-0.1916,-0.1916,-0.1907,-0.1897,-0.1894,-0.1892,-0.1921,-0.1921,-0.1921,0,0,-0.1568,-0.158,-0.1582,-0.1605,-0.1641,-0.1671,-0.1678,-0.1733,-0.1764,-0.1808,-0.1827,-0.1848,-0.189,-0.1898,-0.1904,-0.1913,-0.189,-0.1914,-0.1901,-0.1892,-0.1889,-0.1886,-0.1822,-0.1815,-0.1913,-0.1913,-0.1913,0,-0.1544,-0.1553,-0.1591,-0.1596,-0.1605,-0.1662,-0.1664,-0.171,-0.1773,-0.1788,-0.1817,-0.1861,-0.1885,-0.1885,-0.1895,-0.1909,-0.1886,-0.1902,-0.189,-0.1887,-0.1885,-0.182,-0.1812,-0.1913,-0.1913,-0.1913,-0.1913,0,-0.1534,-0.1537,-0.1542,-0.1563,-0.1584,-0.1597,-0.165,-0.1682,-0.1725,-0.1764,-0.1795,-0.1842,-0.1853,-0.187,-0.1893,-0.1881,-0.1861,-0.189,-0.1889,-0.1882,-0.1814,-0.1805,-0.1912,-0.1912,-0.1913,-0.1913,0,0,-0.1464,-0.1522,-0.1517,-0.1509,-0.1561,-0.1563,-0.1606,-0.1642,-0.163,-0.1726,-0.1713,-0.1786,-0.1806,-0.1814,-0.1839,-0.1852,-0.1816,-0.1869,-0.1868,-0.1798,-0.1752,-0.1619,-0.1596,-0.1851,-0.185,-0.1849,-0.1698,0,-0.1432,-0.1432,-0.1475,-0.1459,-0.1452,-0.1506,-0.1521,-0.1561,-0.1605,-0.1613,-0.1687,-0.1682,-0.1786,-0.1762,-0.1807,-0.1808,-0.1798,-0.1851,-0.1774,-0.1771,-0.165,-0.1584,-0.1516,-0.1367,-0.1689,-0.1688,-0.1687,0,-0.1387,-0.1389,-0.1376,-0.1375,-0.1373,-0.1369,-0.1361,-0.1384,-0.143,-0.1457,-0.1506,-0.1552,-0.1588,-0.1661,-0.1698,-0.1729,-0.1736,-0.1751,-0.1746,-0.1619,-0.1622,-0.1434,-0.1338,-0.1447,-0.1673,-0.1674,-0.1675,0,-0.1284,-0.1304,-0.1285,-0.1287,-0.1306,-0.1289,-0.1293,-0.1324,-0.1288,-0.1332,-0.1279,-0.1396,-0.1359,-0.1466,-0.153,-0.1604,-0.1532,-0.1628,-0.1508,-0.1497,-0.1419,-0.1402,-0.1415,-0.1621,-0.1621,-0.1622,-0.1622,0,-0.121,-0.1175,-0.1226,-0.1195,-0.1113,-0.1179,-0.1085,-0.1109,-0.1096,-0.1,-0.1167,-0.1079,-0.1307,-0.1311,-0.1443,-0.1414,-0.1456,-0.1467,-0.1445,-0.1408,-0.1393,-0.1469,-0.154,-0.1616,-0.1617,-0.1618,-0.1619,0,-0.1055,-0.1126,-0.1053,-0.1061,-0.1051,-0.0968,-0.0899,-0.082,-0.0853,-0.0719,-0.0708,-0.0787,-0.0804,-0.0989,-0.1084,-0.1199,-0.1265,-0.1218,-0.1128,-0.1099,-0.1123,-0.1194,-0.1142,-0.1202,-0.1077,-0.1073,-0.1069,0,-0.0957,-0.0922,-0.089,-0.0819,-0.08,-0.0714,-0.0632,-0.0668,-0.058,-0.0508,-0.0408,-0.0401,-0.0371,-0.0472,-0.0685,-0.0835,-0.1022,-0.084,-0.0986,-0.1068,-0.1135,-0.1235,-0.1302,-0.0871,-0.0866,-0.0862,-0.0858,0,-0.0699,-0.0707,-0.0643,-0.0543,-0.0449,-0.0342,-0.025,-0.016,-0.0171,-0.0078,0.0045,0.0069,-0.0015,-0.0132,-0.0324,-0.0472,-0.0895,-0.0755,-0.0891,-0.0988,-0.1049,-0.1113,-0.1002,-0.0823,-0.0826,-0.0829,-0.0831,-0.0832,-0.0444,-0.0356,-0.0314,-0.0217,-0.0117,-0.0004,0.009,0.0174,0.0305,0.0412,0.041,0.0478,0.03,0.0032,-0.0166,-0.0471,-0.0577,-0.0614,-0.0689,-0.0782,-0.0853,-0.0612,-0.0386,-0.0387,-0.0388,-0.0389,-0.039,0,-0.0139,-0.0117,0.0007,0.0096,0.0212,0.0184,0.0325,0.0397,0.0538,0.0666,0.0743,0.0757,0.0546,0.0229,-0.014,-0.0384,-0.0612,-0.0552,-0.0748,-0.0825,-0.0636,-0.0644,-0.0403,-0.0403,-0.0403,-0.0402,-0.0402,-0.0402,0.0028,0.0155,0.0142,0.0344,0.0401,0.0532,0.0592,0.0698,0.0782,0.096,0.104,0.106,0.0894,0.021,-0.0314,-0.0471,-0.0765,-0.0745,-0.092,-0.0863,-0.088,-0.0896,-0.0924,-0.0745,-0.0746,-0.1125,-0.1128,-0.1131]}],[{"header":{"parameterUnit":"m.s-1","parameterCategory":2,"la1":30.2991,"la2":30.254,"lo1":-89.0895,"lo2":-89.0444,"dy":0.0017,"dx":0.0017,"nx":28,"ny":28,"refTime":"2024-07-29T03:00:00:Z","depth":"2","parameterNumber":2,"parameterNumberName":"U-component_of_CURRENTS"},"data":[0,0,0,0,0,0,0,0,0,0,0,0,0,0,0,0,0,0,0,0,0,0,0,0,0,0,0,0,0,0,0,0,0,0,0,0,0,0,0,0,0,0,0,0,0,0,0,0,0,0,0,0,0,0,0,0,0,0,-0.0537,-0.0537,0,-0.0499,-0.0499,-0.0498,-0.0518,-0.052,-0.0521,-0.0522,-0.0535,-0.0535,-0.0534,0,0,0,0,0,0,0,0,0,0,0,0,0,-0.0615,-0.0614,-0.0537,-0.0537,-0.0537,-0.0499,-0.0499,-0.0498,-0.0518,-0.052,-0.0521,-0.0522,-0.0535,-0.0535,-0.0534,0,0,0,0,0,0,0,0,0,0,0,0,0,-0.0579,-0.0613,-0.0537,-0.0543,-0.0543,-0.05,-0.0499,-0.0498,-0.0518,-0.052,-0.0521,-0.0523,-0.0536,-0.0535,-0.0534,-0.0495,0,0,-0.0531,-0.053,0,0,0,0,0,0,0,0,-0.0581,-0.0576,-0.0542,-0.0542,-0.0542,-0.0516,-0.0531,-0.05,-0.0518,-0.0527,-0.0522,-0.0524,-0.0533,-0.0532,-0.052,-0.0495,-0.0496,-0.0531,-0.053,-0.053,-0.0529,0,0,0,0,0,0,0,-0.0584,-0.0578,-0.0522,-0.0542,-0.0542,-0.0543,-0.054,-0.0525,-0.0521,-0.0526,-0.0527,-0.0524,-0.0534,-0.052,-0.052,-0.0496,-0.0531,-0.053,-0.0529,-0.0529,-0.0469,-0.0468,0,0,0,0,0,0,-0.0588,-0.058,-0.0523,-0.052,-0.0567,-0.054,-0.0537,-0.0522,-0.052,-0.0521,-0.0523,-0.0525,-0.0521,-0.0521,-0.0521,-0.0502,-0.053,-0.0529,-0.0528,-0.047,-0.0468,-0.0467,0,0,0,0,0,0,-0.059,-0.0583,-0.0524,-0.0551,-0.0544,-0.0538,-0.0521,-0.0521,-0.0522,-0.0517,-0.052,-0.0527,-0.0523,-0.0522,-0.0515,-0.0502,-0.0528,-0.0527,-0.0471,-0.0469,-0.0468,-0.0446,0,0,0,0,0,0,-0.0592,-0.0584,-0.0583,-0.0551,-0.0542,-0.05,-0.0519,-0.0519,-0.0517,-0.0521,-0.0521,-0.0524,-0.0524,-0.0516,-0.0514,-0.0501,-0.0527,-0.0472,-0.047,-0.0468,-0.0448,-0.0444,-0.0441,0,0,0,0,0,-0.0595,-0.0587,-0.0583,-0.0577,-0.0539,-0.0499,-0.0495,-0.0496,-0.0516,-0.0506,-0.0513,-0.0524,-0.0502,-0.0514,-0.0512,-0.0498,-0.0473,-0.0471,-0.0468,-0.045,-0.0445,-0.0441,0,0,0,0,0,0,-0.0626,-0.0587,-0.0583,-0.0565,-0.0535,-0.0503,-0.0502,-0.0499,-0.0493,-0.0507,-0.051,-0.0511,-0.0499,-0.0498,-0.0511,-0.0474,-0.0489,-0.0487,-0.0476,-0.0472,-0.0468,-0.0443,-0.0526,0,0,0,0,0,-0.0629,-0.0608,-0.0572,-0.0556,-0.0546,-0.0525,-0.0515,-0.0509,-0.0496,-0.0496,-0.0495,-0.0494,-0.0481,-0.0479,-0.0468,-0.0447,-0.0403,-0.0436,-0.0432,-0.0429,-0.0406,-0.0365,-0.0355,-0.046,-0.046,-0.046,0,0,-0.0633,-0.0612,-0.0599,-0.0561,-0.0544,-0.0511,-0.0523,-0.0504,-0.0475,-0.0498,-0.0475,-0.0481,-0.0473,-0.045,-0.0444,-0.0452,-0.0364,-0.0426,-0.0424,-0.0401,-0.0361,-0.0351,-0.0342,-0.0458,-0.0459,-0.0459,0,0,-0.062,-0.0615,-0.0589,-0.0563,-0.0534,-0.0514,-0.0511,-0.048,-0.0471,-0.0445,-0.0455,-0.045,-0.0434,-0.0418,-0.041,-0.0375,-0.0347,-0.0381,-0.0341,-0.0303,-0.0293,-0.0285,-0.0162,-0.0143,-0.0379,-0.0379,-0.0379,0,-0.0629,-0.0586,-0.0576,-0.0543,-0.0518,-0.0516,-0.0476,-0.0458,-0.0428,-0.0408,-0.0439,-0.04,-0.041,-0.0362,-0.0358,-0.0365,-0.0314,-0.0363,-0.0297,-0.0288,-0.028,-0.0157,-0.0136,-0.0378,-0.0378,-0.0378,-0.0378,0,-0.0585,-0.0556,-0.0542,-0.0493,-0.0469,-0.0436,-0.0406,-0.0386,-0.0388,-0.0365,-0.033,-0.0337,-0.0312,-0.032,-0.0332,-0.0276,-0.0243,-0.0299,-0.031,-0.0268,-0.014,-0.0119,-0.0376,-0.0377,-0.0377,-0.0377,0,0,-0.0566,-0.0519,-0.051,-0.0474,-0.0438,-0.0401,-0.0365,-0.031,-0.027,-0.0268,-0.0209,-0.0213,-0.0226,-0.0216,-0.0231,-0.0205,-0.0103,-0.0229,-0.0227,-0.0104,0.0054,0.0149,0.0181,-0.016,-0.0158,-0.0156,0.014,0,-0.0526,-0.046,-0.0446,-0.0372,-0.0329,-0.0315,-0.027,-0.0229,-0.0206,-0.0153,-0.0157,-0.0112,-0.0182,-0.0165,-0.0157,-0.0117,-0.0054,-0.0172,-0.0005,0.0003,0.008,0.0205,-0.0024,0.0224,0.0161,0.0165,0.0167,0,-0.0468,-0.0429,-0.0361,-0.0289,-0.027,-0.0232,-0.0153,-0.0111,-0.0054,-0.0034,-0.0012,-0.0009,0.0047,-0.0036,0.0073,-0.0001,0.0038,0.0065,0.0075,0.017,0.0135,0.0162,0.0265,0.0203,0.02,0.0197,0.0195,0,-0.0425,-0.0357,-0.0301,-0.0276,-0.0207,-0.0171,-0.0136,-0.0077,-0.0,0.0052,0.0126,0.014,0.0215,0.0215,0.0271,0.0173,0.0421,0.0288,0.0434,0.0444,0.0291,0.0284,0.0386,0.0385,0.0385,0.0384,0.0383,0,-0.0363,-0.0305,-0.0278,-0.0236,-0.0138,-0.0128,-0.0017,0.0018,0.01,0.0222,0.0194,0.0312,0.0276,0.04,0.0372,0.0529,0.0514,0.0507,0.0531,0.0301,0.0291,0.0274,0.0257,0.0395,0.0393,0.039,0.0388,0,-0.0281,-0.0282,-0.0189,-0.0132,-0.0107,-0.003,0.009,0.0176,0.0227,0.0391,0.0429,0.0516,0.0662,0.0692,0.0772,0.0737,0.0815,0.0873,0.0665,0.0659,0.0787,0.0767,0.105,0.1056,0.1061,0.1065,0.1069,0,-0.0219,-0.0175,-0.0094,-0.0028,0.001,0.011,0.0194,0.0247,0.0343,0.053,0.0627,0.0815,0.0891,0.1096,0.1058,0.1114,0.1078,0.1006,0.0752,0.0864,0.0858,0.083,0.0805,0.0579,0.0578,0.0577,0.0577,0,-0.0068,-0.0056,0.002,0.0118,0.0208,0.031,0.0411,0.0483,0.0567,0.0673,0.0822,0.0881,0.1079,0.1022,0.115,0.1114,0.0954,0.1002,0.118,0.0452,0.0444,0.0429,0.0415,0.0571,0.0571,0.0572,0.0572,0.0572,0.0062,0.0124,0.0183,0.0262,0.0382,0.0435,0.0472,0.0553,0.0634,0.0692,0.0837,0.0871,0.0882,0.0929,0.0983,0.1039,0.1044,0.0906,0.0896,0.0889,0.0788,0.0789,0.0968,0.0971,0.0973,0.0975,0.0977,0,0.0153,0.0191,0.031,0.0362,0.0452,0.0496,0.0572,0.0538,0.0541,0.0658,0.0686,0.064,0.0602,0.073,0.0758,0.0796,0.0656,0.0804,0.0537,0.0541,0.0545,0.0416,0.0504,0.0504,0.0505,0.0505,0,0,0.0208,0.0261,0.0251,0.0349,0.042,0.0468,0.0468,0.0417,0.045,0.0448,0.0485,0.0443,0.0585,0.0496,0.0493,0.0532,0.0535,0.0513,0.0857,0.0536,0.0541,0.0544,0.0344,0,0,0,0,0]},{"header":{"parameterUnit":"m.s-1","parameterCategory":2,"la1":30.2991,"la2":30.254,"lo1":-89.0895,"lo2":-89.0444,"dy":0.0017,"dx":0.0017,"nx":28,"ny":28,"refTime":"2024-07-29T03:00:00:Z","depth":"2","parameterNumber":3,"parameterNumberName":"V-component_of_CURRENTS"},"data":[0,0,0,0,0,0,0,0,0,0,0,0,0,0,0,0,0,0,0,0,0,0,0,0,0,0,0,0,0,0,0,0,0,0,0,0,0,0,0,0,0,0,0,0,0,0,0,0,0,0,0,0,0,0,0,0,0,0,0.0515,0.0516,0,0.0658,0.0661,0.0663,0.0724,0.0723,0.0721,0.072,0.0695,0.0696,0.0696,0,0,0,0,0,0,0,0,0,0,0,0,0,0.0516,0.0515,0.0515,0.0516,0.0516,0.0657,0.0661,0.0664,0.0724,0.0722,0.0721,0.0719,0.0695,0.0695,0.0696,0,0,0,0,0,0,0,0,0,0,0,0,0,0.0585,0.0515,0.0515,0.0553,0.0557,0.0657,0.0661,0.0665,0.0725,0.0722,0.072,0.0718,0.0694,0.0695,0.0696,0.0749,0,0,0.07,0.07,0,0,0,0,0,0,0,0,0.0581,0.0587,0.0547,0.0551,0.0555,0.0659,0.0651,0.068,0.0725,0.0676,0.072,0.0717,0.066,0.0664,0.0718,0.0748,0.0746,0.07,0.0701,0.0701,0.0701,0,0,0,0,0,0,0,0.0576,0.0582,0.0586,0.0548,0.0552,0.0638,0.0645,0.066,0.0686,0.068,0.0681,0.0676,0.0662,0.0717,0.0717,0.0746,0.07,0.0701,0.0702,0.0702,0.0712,0.0711,0,0,0,0,0,0,0.0522,0.0576,0.0581,0.0589,0.0547,0.0638,0.0646,0.0639,0.069,0.0693,0.0678,0.0678,0.0716,0.0715,0.0715,0.067,0.0701,0.0702,0.0703,0.0712,0.0712,0.0711,0,0,0,0,0,0,0.0521,0.0521,0.0575,0.0575,0.0586,0.0637,0.0631,0.0643,0.0649,0.0687,0.069,0.0663,0.0714,0.0714,0.0705,0.0673,0.0703,0.0704,0.0713,0.0712,0.0711,0.0648,0,0,0,0,0,0,0.0521,0.052,0.0513,0.0571,0.0583,0.0613,0.0632,0.0647,0.0646,0.0647,0.0676,0.0676,0.0712,0.0703,0.0706,0.0675,0.0705,0.0713,0.0712,0.0712,0.0651,0.0646,0.0641,0,0,0,0,0,0.052,0.0524,0.0512,0.0512,0.0566,0.0612,0.0629,0.0668,0.0646,0.0663,0.0673,0.0672,0.0699,0.0704,0.0707,0.0676,0.0714,0.0713,0.0712,0.0653,0.0647,0.0641,0,0,0,0,0,0,0.0534,0.0531,0.0519,0.0522,0.0545,0.0616,0.0629,0.0638,0.0669,0.0638,0.0676,0.0678,0.0662,0.0678,0.0682,0.0678,0.0702,0.0702,0.0657,0.0651,0.0646,0.0624,0.0705,0,0,0,0,0,0.0523,0.052,0.0529,0.0534,0.0525,0.0562,0.0582,0.0589,0.0614,0.0625,0.0654,0.0663,0.0675,0.0664,0.0694,0.0685,0.0658,0.0665,0.066,0.0656,0.0641,0.0566,0.0552,0.0708,0.0708,0.0708,0,0,0.0529,0.0527,0.0525,0.0535,0.0548,0.0564,0.0572,0.0567,0.0583,0.0611,0.064,0.0649,0.0672,0.0679,0.067,0.0675,0.06,0.0655,0.065,0.0638,0.0563,0.0548,0.0534,0.0707,0.0708,0.0708,0,0,0.0545,0.0522,0.0519,0.053,0.0516,0.054,0.0515,0.0548,0.0556,0.0577,0.0593,0.0574,0.0621,0.0629,0.0635,0.0612,0.0584,0.0612,0.0557,0.0485,0.047,0.0457,0.0408,0.0391,0.06,0.06,0.06,0,0.0544,0.0534,0.0532,0.0534,0.0528,0.0513,0.0504,0.0535,0.057,0.0554,0.0566,0.0588,0.0601,0.0578,0.0578,0.0597,0.0555,0.0576,0.0474,0.046,0.0448,0.0401,0.0383,0.0596,0.0597,0.0597,0.0597,0,0.0558,0.0546,0.0539,0.0529,0.0542,0.0518,0.0525,0.0525,0.0511,0.053,0.0498,0.0528,0.0523,0.0528,0.0549,0.0468,0.0467,0.048,0.048,0.0428,0.0383,0.0365,0.0592,0.0593,0.0594,0.0595,0,0,0.0513,0.054,0.0524,0.0505,0.0508,0.0503,0.0512,0.0496,0.046,0.0486,0.0449,0.0466,0.0437,0.0441,0.0444,0.0386,0.0272,0.0384,0.0381,0.0321,0.0106,0.009,0.007,0.0249,0.0246,0.0243,0.0111,0,0.0491,0.0491,0.0517,0.0495,0.0468,0.0468,0.0483,0.047,0.0459,0.0438,0.0408,0.0387,0.0416,0.0379,0.0326,0.0293,0.022,0.0307,0.018,0.0176,0.0155,0.0047,0.0116,0.0002,0.0094,0.0091,0.0089,0,0.0444,0.0448,0.0428,0.0421,0.0404,0.0403,0.0348,0.0363,0.034,0.0328,0.0288,0.0285,0.0218,0.0242,0.0126,0.0171,0.012,0.0096,0.009,0.0081,0.0126,0.007,-0.0034,0.0059,0.0061,0.0063,0.0065,0,0.0344,0.0357,0.0327,0.0327,0.0345,0.0309,0.0305,0.0294,0.0297,0.0231,0.0222,0.0149,0.0114,0.0031,0.001,0.0033,-0.0114,-0.0086,-0.0147,-0.0147,-0.0109,-0.0101,-0.0207,-0.0206,-0.0206,-0.0206,-0.0205,0,0.0267,0.0224,0.0263,0.0235,0.0191,0.0212,0.0161,0.0157,0.0153,0.0162,0.0133,0.0127,0.0052,-0.0002,-0.0048,-0.0151,-0.017,-0.0194,-0.0205,-0.0126,-0.0118,-0.0073,-0.0056,-0.0211,-0.021,-0.0209,-0.0208,0,0.014,0.0169,0.0134,0.0141,0.0139,0.0092,0.0118,0.0117,0.009,0.0102,0.0082,0.0073,-0.0008,-0.0059,-0.0182,-0.022,-0.0317,-0.0345,-0.0234,-0.0232,-0.029,-0.0274,-0.0471,-0.0474,-0.0475,-0.0477,-0.0478,0,0.0071,0.0046,0.0065,0.0086,0.0079,0.0048,0.007,0.007,0.0098,0.0098,0.0116,0.0038,0.0015,-0.0169,-0.0251,-0.0381,-0.0366,-0.042,-0.0374,-0.0338,-0.0328,-0.0309,-0.0291,-0.0338,-0.0339,-0.0339,-0.0339,0,-0.0028,-0.0018,-0.0003,0.0037,0.0052,0.0088,0.0103,0.0113,0.0142,0.0148,0.0157,0.0115,-0.0027,-0.0138,-0.0317,-0.0374,-0.04,-0.0429,-0.0456,-0.0277,-0.0223,-0.0209,-0.0194,-0.0339,-0.0339,-0.0339,-0.0339,-0.0339,-0.0075,-0.007,-0.001,0.0024,0.0078,0.0138,0.0178,0.0212,0.0239,0.0245,0.0209,0.0149,0.0012,-0.0214,-0.0317,-0.0413,-0.0428,-0.0454,-0.045,-0.0447,-0.0404,-0.0355,-0.0487,-0.0487,-0.0488,-0.0489,-0.0489,0,-0.0089,-0.0048,-0.0003,0.0073,0.0167,0.0184,0.0251,0.0278,0.0329,0.0275,0.0259,0.0128,-0.0006,-0.0155,-0.0294,-0.0414,-0.0372,-0.0439,-0.0349,-0.0349,-0.0348,-0.0296,-0.0353,-0.0353,-0.0353,-0.0354,0,0,-0.0085,-0.0028,0.0006,0.0155,0.0236,0.037,0.043,0.0391,0.0361,0.0285,0.0236,0.0159,-0.0008,-0.0086,-0.0208,-0.0282,-0.0287,-0.0285,-0.0379,-0.0256,-0.0254,-0.034,-0.0258,0,0,0,0,0]}],[{"header":{"parameterUnit":"m.s-1","parameterCategory":2,"la1":30.2991,"la2":30.254,"lo1":-89.0895,"lo2":-89.0444,"dy":0.0017,"dx":0.0017,"nx":28,"ny":28,"refTime":"2024-07-29T03:00:00:Z","depth":"4","parameterNumber":2,"parameterNumberName":"U-component_of_CURRENTS"},"data":[0,0,0,0,0,0,0,0,0,0,0,0,0,0,0,0,0,0,0,0,0,0,0,0,0,0,0,0,0,0,0,0,0,0,0,0,0,0,0,0,0,0,0,0,0,0,0,0,0,0,0,0,0,0,0,0,0,0,-0.0148,-0.0148,0,-0.0129,-0.0129,-0.0128,-0.0097,-0.0096,-0.0096,-0.0095,-0.0125,-0.0126,-0.0128,0,0,0,0,0,0,0,0,0,0,0,0,0,-0.0153,-0.0153,-0.0148,-0.0148,-0.0148,-0.0129,-0.0129,-0.0128,-0.0097,-0.0096,-0.0096,-0.0095,-0.0125,-0.0126,-0.0128,0,0,0,0,0,0,0,0,0,0,0,0,0,-0.0143,-0.0153,-0.0148,-0.0131,-0.0129,-0.0129,-0.0129,-0.0128,-0.0097,-0.0096,-0.0095,-0.0095,-0.0124,-0.0126,-0.0128,-0.0153,0,0,-0.0133,-0.0134,0,0,0,0,0,0,0,0,-0.0144,-0.0143,-0.0134,-0.0132,-0.013,-0.0116,-0.0141,-0.0139,-0.0097,-0.0108,-0.0095,-0.0094,-0.0128,-0.013,-0.0125,-0.0154,-0.0155,-0.0134,-0.0135,-0.0136,-0.0136,0,0,0,0,0,0,0,-0.0144,-0.0143,-0.0139,-0.0134,-0.0132,-0.0123,-0.0121,-0.0141,-0.0122,-0.0107,-0.0105,-0.0105,-0.0127,-0.0123,-0.0125,-0.0156,-0.0134,-0.0135,-0.0136,-0.0137,-0.0193,-0.0194,0,0,0,0,0,0,-0.0151,-0.0144,-0.014,-0.0139,-0.0137,-0.0124,-0.0121,-0.012,-0.012,-0.012,-0.0106,-0.0104,-0.012,-0.0123,-0.0126,-0.0143,-0.0136,-0.0137,-0.0138,-0.0193,-0.0193,-0.0194,0,0,0,0,0,0,-0.0151,-0.015,-0.0141,-0.0142,-0.014,-0.0124,-0.0124,-0.012,-0.0109,-0.0119,-0.0119,-0.0098,-0.012,-0.0124,-0.0134,-0.0144,-0.0138,-0.014,-0.0192,-0.0193,-0.0194,-0.0184,0,0,0,0,0,0,-0.0151,-0.0151,-0.0151,-0.0143,-0.0141,-0.0137,-0.0124,-0.012,-0.0112,-0.0109,-0.0114,-0.0115,-0.0119,-0.0131,-0.0135,-0.0147,-0.0141,-0.0192,-0.0193,-0.0193,-0.0184,-0.0184,-0.0185,0,0,0,0,0,-0.0151,-0.0156,-0.0151,-0.015,-0.0142,-0.0138,-0.0135,-0.0121,-0.0112,-0.0108,-0.0107,-0.0115,-0.0139,-0.0132,-0.0138,-0.015,-0.0192,-0.0193,-0.0193,-0.0184,-0.0184,-0.0185,0,0,0,0,0,0,-0.0161,-0.0153,-0.0147,-0.0149,-0.0142,-0.0133,-0.013,-0.0121,-0.0116,-0.0112,-0.0118,-0.012,-0.0132,-0.0145,-0.0137,-0.0169,-0.0168,-0.017,-0.0159,-0.016,-0.016,-0.014,-0.0143,0,0,0,0,0,-0.0164,-0.0162,-0.0154,-0.0156,-0.0153,-0.0141,-0.0137,-0.0127,-0.0123,-0.0118,-0.0122,-0.0131,-0.0143,-0.0152,-0.0162,-0.0183,-0.0185,-0.0195,-0.0196,-0.0196,-0.0184,-0.0194,-0.0194,-0.0197,-0.0197,-0.0197,0,0,-0.017,-0.0165,-0.0164,-0.0158,-0.0151,-0.0144,-0.0136,-0.013,-0.0122,-0.0126,-0.0122,-0.0131,-0.0147,-0.0161,-0.0169,-0.0172,-0.0198,-0.0197,-0.0197,-0.0184,-0.0195,-0.0195,-0.0194,-0.0197,-0.0197,-0.0197,0,0,-0.0176,-0.0174,-0.017,-0.0164,-0.0153,-0.0146,-0.0144,-0.0133,-0.0126,-0.013,-0.0127,-0.0134,-0.0162,-0.0163,-0.0172,-0.0183,-0.0196,-0.0199,-0.019,-0.02,-0.02,-0.0199,-0.0206,-0.0206,-0.0204,-0.0204,-0.0204,0,-0.018,-0.0173,-0.0169,-0.0162,-0.0157,-0.0147,-0.014,-0.0134,-0.0127,-0.0126,-0.013,-0.015,-0.0159,-0.017,-0.0168,-0.0183,-0.0191,-0.0186,-0.02,-0.0199,-0.0199,-0.0205,-0.0206,-0.0204,-0.0204,-0.0204,-0.0204,0,-0.0177,-0.0171,-0.017,-0.0155,-0.0152,-0.0145,-0.0138,-0.0134,-0.0133,-0.0128,-0.0138,-0.0147,-0.0157,-0.017,-0.0171,-0.0178,-0.0185,-0.0195,-0.0195,-0.0198,-0.0205,-0.0205,-0.0203,-0.0203,-0.0203,-0.0203,0,0,-0.0183,-0.0169,-0.0167,-0.0161,-0.0146,-0.0145,-0.0138,-0.0131,-0.013,-0.0131,-0.0133,-0.0145,-0.0145,-0.0153,-0.0162,-0.017,-0.0173,-0.0179,-0.018,-0.0178,-0.0196,-0.0114,-0.0107,-0.0189,-0.0189,-0.0189,-0.0203,0,-0.0177,-0.0165,-0.0159,-0.015,-0.0143,-0.0137,-0.0136,-0.013,-0.0132,-0.0133,-0.0138,-0.0148,-0.0142,-0.0154,-0.0154,-0.017,-0.0173,-0.0168,-0.0198,-0.0199,-0.012,-0.0104,-0.0189,-0.0203,-0.0203,-0.0203,-0.0203,0,-0.0171,-0.0163,-0.0153,-0.0149,-0.0147,-0.0141,-0.0141,-0.0137,-0.0135,-0.0142,-0.0141,-0.0145,-0.0145,-0.0149,-0.0159,-0.0158,-0.0166,-0.0179,-0.018,-0.0102,-0.0117,-0.02,-0.0204,-0.0204,-0.0204,-0.0204,-0.0204,0,-0.0175,-0.0161,-0.0155,-0.015,-0.0142,-0.0141,-0.0138,-0.0138,-0.014,-0.0143,-0.0151,-0.015,-0.0156,-0.0163,-0.0155,-0.0171,-0.0164,-0.0197,-0.013,-0.0125,-0.0201,-0.0201,-0.0199,-0.0199,-0.0199,-0.0199,-0.0198,0,-0.0171,-0.0167,-0.0156,-0.0151,-0.0149,-0.0145,-0.0149,-0.0147,-0.015,-0.0145,-0.0151,-0.0143,-0.016,-0.0149,-0.0153,-0.0118,-0.016,-0.011,-0.0115,-0.0199,-0.0198,-0.0202,-0.0202,-0.0199,-0.0199,-0.0199,-0.0199,0,-0.018,-0.017,-0.0162,-0.0152,-0.0149,-0.0149,-0.015,-0.0148,-0.0158,-0.0152,-0.0154,-0.0145,-0.0123,-0.012,-0.0129,-0.0107,-0.0096,-0.0074,-0.0144,-0.0155,-0.0061,-0.0061,-0.0025,-0.0022,-0.0019,-0.0017,-0.0015,0,-0.0183,-0.0182,-0.0165,-0.0153,-0.0146,-0.0146,-0.0139,-0.0148,-0.0142,-0.0139,-0.0125,-0.0108,-0.0092,-0.0043,-0.0038,-0.0025,-0.0019,-0.0019,-0.0049,-0.0031,-0.004,-0.0044,-0.0047,-0.0011,-0.0011,-0.001,-0.0009,0,-0.0194,-0.0188,-0.0179,-0.0151,-0.0136,-0.013,-0.0119,-0.0118,-0.0117,-0.0132,-0.0095,-0.0067,-0.0026,-0.0004,0.0028,0.0032,-0.0025,0.0006,-0.0,-0.0029,-0.0015,-0.0027,-0.0033,-0.0001,-0.0002,-0.0003,-0.0003,0,-0.0203,-0.0195,-0.0173,-0.015,-0.0127,-0.0101,-0.0106,-0.0085,-0.0086,-0.0081,-0.0059,-0.0032,-0.0024,0.0029,0.0058,0.0084,0.0068,0.0052,0.0043,0.0033,0.0068,0.0096,0.0155,0,0,0,0,0,-0.0214,-0.0195,-0.017,-0.0131,-0.0103,-0.0088,-0.008,-0.0084,-0.0084,-0.0052,-0.0059,-0.0016,0.0039,0.0059,0.0097,0.0096,0.0072,0.0143,0.0049,0.0048,0.0037,0.0079,0,0,0,0,0,0,-0.0212,-0.0194,-0.0171,-0.0117,-0.0083,-0.0053,-0.0045,-0.0045,-0.0032,-0.0033,-0.0007,0.0002,0.0049,0.0017,0.01,0.0109,0.0057,0.0162,0.0163,0.0053,0.0044,0.0036,0.0075,0,0,0,0,0]},{"header":{"parameterUnit":"m.s-1","parameterCategory":2,"la1":30.2991,"la2":30.254,"lo1":-89.0895,"lo2":-89.0444,"dy":0.0017,"dx":0.0017,"nx":28,"ny":28,"refTime":"2024-07-29T03:00:00:Z","depth":"4","parameterNumber":3,"parameterNumberName":"V-component_of_CURRENTS"},"data":[0,0,0,0,0,0,0,0,0,0,0,0,0,0,0,0,0,0,0,0,0,0,0,0,0,0,0,0,0,0,0,0,0,0,0,0,0,0,0,0,0,0,0,0,0,0,0,0,0,0,0,0,0,0,0,0,0,0,0.0109,0.0108,0,0.0058,0.0057,0.0056,0.0032,0.0032,0.0032,0.0032,-0.0005,-0.0006,-0.0007,0,0,0,0,0,0,0,0,0,0,0,0,0,0.016,0.0159,0.0109,0.0108,0.0108,0.0058,0.0057,0.0056,0.0032,0.0032,0.0032,0.0032,-0.0004,-0.0005,-0.0007,0,0,0,0,0,0,0,0,0,0,0,0,0,0.0126,0.0159,0.0109,0.009,0.0087,0.0058,0.0057,0.0056,0.0031,0.0032,0.0032,0.0032,-0.0004,-0.0005,-0.0007,-0.0018,0,0,-0.0011,-0.0012,0,0,0,0,0,0,0,0,0.0128,0.0124,0.0093,0.0091,0.0088,0.0051,0.0062,0.0032,0.0031,0.0052,0.0032,0.0032,0.0016,0.0013,0.0002,-0.0019,-0.0021,-0.0012,-0.0013,-0.0013,-0.0014,0,0,0,0,0,0,0,0.013,0.0126,0.0088,0.0092,0.0089,0.0075,0.007,0.0056,0.0034,0.005,0.0049,0.0044,0.0014,0.0004,0.0001,-0.0021,-0.0012,-0.0013,-0.0014,-0.0014,-0.0098,-0.0099,0,0,0,0,0,0,0.0139,0.0128,0.009,0.0087,0.0109,0.0074,0.0069,0.0063,0.0034,0.003,0.0044,0.0043,0.0006,0.0003,-0.0,-0.0034,-0.0013,-0.0015,-0.0015,-0.0097,-0.0098,-0.01,0,0,0,0,0,0,0.014,0.0136,0.0092,0.0107,0.01,0.0073,0.0067,0.0062,0.0044,0.0029,0.0024,0.0031,0.0006,0.0002,-0.0028,-0.0035,-0.0015,-0.0017,-0.0095,-0.0097,-0.0099,-0.0089,0,0,0,0,0,0,0.0142,0.0136,0.013,0.0107,0.01,0.0064,0.0066,0.0061,0.0042,0.004,0.0016,0.0013,0.0006,-0.0025,-0.0029,-0.0037,-0.0018,-0.0093,-0.0096,-0.0098,-0.0088,-0.0091,-0.0093,0,0,0,0,0,0.0144,0.0126,0.013,0.0125,0.0094,0.0063,0.0057,0.0039,0.0041,0.0025,0.0009,0.0014,-0.0044,-0.0028,-0.0032,-0.004,-0.0092,-0.0095,-0.0098,-0.0087,-0.009,-0.0093,0,0,0,0,0,0,0.0138,0.0121,0.0125,0.0103,0.0085,0.0059,0.0042,0.0035,0.001,0.001,-0.0001,-0.0006,-0.0038,-0.0045,-0.0027,-0.0075,-0.0068,-0.0072,-0.0058,-0.0062,-0.0064,-0.0045,-0.0019,0,0,0,0,0,0.0138,0.0125,0.0108,0.009,0.0082,0.0065,0.0051,0.004,0.0018,0.0006,-0.001,-0.003,-0.0053,-0.0061,-0.0087,-0.0106,-0.0087,-0.0118,-0.012,-0.0122,-0.0112,-0.0083,-0.0081,-0.0109,-0.0109,-0.0109,0,0,0.013,0.012,0.0112,0.0089,0.0076,0.0051,0.0056,0.003,0.0009,0.0007,-0.0029,-0.0043,-0.0064,-0.0093,-0.0107,-0.0097,-0.0108,-0.0126,-0.0127,-0.0115,-0.0086,-0.0083,-0.008,-0.0111,-0.0111,-0.0111,0,0,0.0105,0.0102,0.0083,0.0067,0.0047,0.0035,0.0029,0.0003,-0.0009,-0.0041,-0.005,-0.0064,-0.0104,-0.0113,-0.0123,-0.0155,-0.0129,-0.017,-0.0155,-0.0128,-0.0124,-0.0121,-0.01,-0.0094,-0.0162,-0.0162,-0.0162,0,0.0098,0.0078,0.0071,0.0046,0.0036,0.0028,0.0006,-0.0015,-0.0048,-0.0049,-0.0056,-0.0095,-0.0112,-0.0128,-0.014,-0.0157,-0.0136,-0.0136,-0.0127,-0.0123,-0.0119,-0.0098,-0.0092,-0.0162,-0.0162,-0.0162,-0.0162,0,0.0058,0.0045,0.003,0.0005,-0.0013,-0.0032,-0.0052,-0.0069,-0.0075,-0.0084,-0.0102,-0.0119,-0.0132,-0.0146,-0.0151,-0.0142,-0.0134,-0.0135,-0.0108,-0.0115,-0.0094,-0.0088,-0.0162,-0.0162,-0.0162,-0.0162,0,0,0.0045,0.0013,0.001,0.0007,-0.0028,-0.0041,-0.0075,-0.009,-0.0092,-0.0118,-0.0115,-0.0149,-0.0134,-0.0145,-0.0148,-0.0122,-0.0085,-0.0111,-0.011,-0.0071,-0.0019,-0.0095,-0.0095,-0.0073,-0.0072,-0.0071,-0.0016,0,0.0024,-0.0005,-0.0025,-0.0051,-0.006,-0.0075,-0.0098,-0.0114,-0.0123,-0.0127,-0.0126,-0.0133,-0.0142,-0.0132,-0.0113,-0.0095,-0.0067,-0.01,-0.0036,-0.0034,-0.0083,-0.009,-0.0067,-0.0012,-0.001,-0.0009,-0.0008,0,-0.0001,-0.0011,-0.0034,-0.0044,-0.005,-0.0073,-0.0078,-0.0102,-0.0113,-0.0113,-0.0111,-0.0112,-0.0096,-0.0095,-0.005,-0.0066,-0.0039,-0.0021,-0.0018,-0.0083,-0.0098,-0.0004,0.0003,0.0002,0.0001,0.0001,0.0,0,0.0019,-0.0011,-0.0018,-0.0028,-0.0055,-0.0062,-0.0074,-0.0091,-0.0102,-0.0095,-0.0091,-0.0077,-0.0065,-0.0029,-0.0024,-0.0015,0.0027,0.0042,0.0001,-0.0004,0.0048,0.0044,0.009,0.009,0.009,0.009,0.0089,0,0.0018,0.001,-0.0004,-0.0011,-0.002,-0.0037,-0.0049,-0.0059,-0.0068,-0.0081,-0.0073,-0.0078,-0.0042,-0.0034,-0.001,-0.0007,0.0036,0.0005,0.0005,0.0046,0.0041,0.0053,0.0048,0.0092,0.0091,0.0091,0.009,0,0.0024,0.0019,0.0003,-0.0011,-0.0016,-0.0024,-0.0052,-0.0065,-0.0056,-0.0071,-0.0066,-0.0064,-0.005,-0.0041,0.0009,-0.0001,0.0018,0.001,0.0039,0.0039,-0.0022,-0.0028,0.0003,0.0,-0.0002,-0.0003,-0.0004,0,0.0014,0.0012,-0.0003,-0.0025,-0.0039,-0.0051,-0.0074,-0.0068,-0.0085,-0.0077,-0.0089,-0.0074,-0.0079,-0.0067,-0.0052,-0.0024,-0.0028,-0.0015,-0.0001,-0.0028,-0.0031,-0.0033,-0.0036,-0.0007,-0.0008,-0.0008,-0.0009,0,-0.0023,-0.0023,-0.0042,-0.0065,-0.0088,-0.011,-0.0129,-0.013,-0.0127,-0.0107,-0.0109,-0.0106,-0.0105,-0.009,-0.0092,-0.007,-0.0021,-0.0034,-0.0028,-0.0015,-0.004,-0.0041,-0.0042,-0.0015,-0.0014,-0.0014,-0.0013,0,-0.0076,-0.0091,-0.0112,-0.0131,-0.0157,-0.0177,-0.0169,-0.0182,-0.0177,-0.0147,-0.0151,-0.0134,-0.0112,-0.0116,-0.0117,-0.0116,-0.0092,-0.0078,-0.0069,-0.0062,-0.0116,-0.0159,-0.0168,0,0,0,0,0,-0.0139,-0.0158,-0.0185,-0.0204,-0.022,-0.0226,-0.0226,-0.0212,-0.0179,-0.0187,-0.0164,-0.0164,-0.016,-0.0152,-0.0159,-0.0152,-0.0103,-0.0163,-0.0084,-0.0051,-0.0044,-0.0106,0,0,0,0,0,0,-0.0193,-0.0222,-0.0207,-0.0258,-0.0276,-0.0294,-0.0289,-0.0263,-0.0254,-0.0216,-0.0208,-0.018,-0.0171,-0.0157,-0.0164,-0.0163,-0.0118,-0.0148,-0.0149,-0.0056,-0.0049,-0.0043,-0.0104,0,0,0,0,0]}]]